This demonstration page uses our WeatherBlox Daily Observations layout. Learn more.

Left ArrowRight Arrow

38.89511, -77.03637

Hourly Observations for July 8, 2018

Temp ( °F °C ) Dew Point ( °F °C ) Humidity (%) Winds ( mph kmh ) Pressure ( in mb ) Visibility ( mi km ) Precip ( " mm )
12:52 am 00:52 Clear 69 20.6 53 11.7 57 57 ENE 3 6 30.33 1027 10 16 0.00 0.00
1:52 am 01:52 Clear 68 20 53 11.7 59 59 NE 6 9 30.33 1027 10 16 0.00 0.00
2:52 am 02:52 Mostly Clear 68 20 53 11.7 59 59 NE 6 9 30.31 1027 10 16 0.00 0.00
3:52 am 03:52 Mostly Clear 66 18.9 55 12.8 68 68 N 5 7 30.32 1027 10 16 0.00 0.00
4:52 am 04:52 Clear 65 18.3 55 12.8 70 70 NNW 7 11 30.31 1027 10 16 0.00 0.00
5:52 am 05:52 Mostly Sunny 64 17.8 56 13.3 75 75 NNW 6 9 30.32 1027 10 16 0.00 0.00
6:52 am 06:52 Mostly Sunny 66 18.9 58 14.4 75 75 NE 6 9 30.34 1027 10 16 0.00 0.00
7:52 am 07:52 Mostly Sunny 70 21.1 55 12.8 59 59 NNE 8 13 30.36 1028 10 16 0.00 0.00
8:52 am 08:52 Sunny 73 22.8 56 13.3 55 55 NE 13 20 30.38 1029 10 16 0.00 0.00
9:52 am 09:52 Sunny 75 23.9 53 11.7 46 46 NNE 7 11 30.37 1029 10 16 0.00 0.00
10:52 am 10:52 Mostly Sunny 78 25.6 53 11.7 42 42 ENE 13 20 30.37 1029 10 16 0.00 0.00
11:52 am 11:52 Sunny 80 26.7 51 10.6 37 37 VRB 7 11 30.35 1028 10 16 0.00 0.00
12:52 pm 12:52 Sunny 82 27.8 49 9.4 32 32 E 10 17 30.34 1027 10 16 0.00 0.00
1:52 pm 13:52 Sunny 83 28.3 46 7.8 27 27 VRB 7 11 30.32 1027 10 16 0.00 0.00
2:52 pm 14:52 Sunny 84 28.9 46 7.8 27 27 NE 6 9 30.31 1027 10 16 0.00 0.00
3:52 pm 15:52 Sunny 84 28.9 48 8.9 29 29 E 6 9 30.30 1026 10 16 0.00 0.00
4:52 pm 16:52 Sunny 85 29.4 49 9.4 29 29 E 7 11 30.28 1026 10 16 0.00 0.00
5:52 pm 17:52 Sunny 83 28.3 49 9.4 31 31 E 6 9 30.28 1025 10 16 0.00 0.00
6:52 pm 18:52 Sunny 82 27.8 52 11.1 35 35 ESE 8 13 30.28 1026 10 16 0.00 0.00
7:52 pm 19:52 Sunny 80 26.7 52 11.1 38 38 E 9 15 30.28 1025 10 16 0.00 0.00
8:52 pm 20:52 Clear 78 25.6 53 11.7 42 42 ESE 6 9 30.29 1026 10 16 0.00 0.00
9:52 pm 21:52 Clear 76 24.4 55 12.8 48 48 ESE 6 9 30.29 1026 10 16 0.00 0.00
10:52 pm 22:52 Clear 73 22.8 56 13.3 55 55 SSE 7 11 30.29 1026 10 16 0.00 0.00
11:52 pm 23:52 Clear 72 22.2 54 12.2 53 53 S 8 13 30.29 1026 10 16 0.00 0.00

Powered by AerisWeather